Find Starlink 34931

NORAD ID: 65398 Int'l Des: 2025-191 Owner: SPXS Country: US Constellation: starlink operational
LEOCIRCULARRETROGRADESSO

現在のビュー

3D地球を読み込み中...

About Starlink 34931

Starlink 34931 (NORAD 65398) is a starlink constellation satellite (v2 mini) launched Aug 30, 2025 by SPXS of US. It operates in LEO, CIRCULAR, RETROGRADE, SSO orbit with a mass of 575.00 kg.

Starlink 34931について

説明を読み込み中...

次回通過

Passes for default location (London). Set your location on the main map for personalized predictions.

高度履歴

Loading altitude history...

軌道要素

1 65398U 25191V 26168.09196582 .00002527 00000-0 17897-3 0 9993
2 65398 97.3531 38.4727 0002546 87.9174 272.2344 15.05658795 45223
Epoch: Jun 17, 2026 • Age: 14 hours

現在のステータス

高度 551.3 km
速度 7.59 km/s
衛星直下点 11.71°N, 117.64°W
打ち上げ日 Aug 30, 2025
運用期間 0.7 years
タイプ internet

技術仕様

分類 Payload
質量 575.00 kg
乾燥質量 530.00 kg
総質量 575.00 kg
長さ 0.30 m
直径 4.10 m
スパン 29.00 m
形状 Box + pan
製造者 SPXS
バスタイプ Starlink V2MO
フェーズステータス In Orbit
所有者/国 SPXS/US

Most Searched